Year,Month,Day,Hour,Minute,Value (Times are PST for temperature in C)
2014,11,17,00,00,-1.30
2014,11,17,00,01,-1.40
2014,11,17,00,02,-1.40
2014,11,17,00,03,-1.40
2014,11,17,00,04,-1.40
2014,11,17,00,05,-1.40
2014,11,17,00,06,-1.40
2014,11,17,00,07,-1.40
2014,11,17,00,08,-1.40
2014,11,17,00,09,-1.50
2014,11,17,00,10,-1.50
2014,11,17,00,11,-1.50
2014,11,17,00,12,-1.60
2014,11,17,00,13,-1.60
2014,11,17,00,14,-1.60
2014,11,17,00,15,-1.60
2014,11,17,00,16,-1.60
2014,11,17,00,17,-1.60
2014,11,17,00,18,-1.60
2014,11,17,00,19,-1.60
2014,11,17,00,20,-1.60
2014,11,17,00,21,-1.60
2014,11,17,00,22,-1.60
2014,11,17,00,23,-1.60
2014,11,17,00,24,-1.60
2014,11,17,00,25,-1.70
2014,11,17,00,26,-1.70
2014,11,17,00,27,-1.70
2014,11,17,00,28,-1.70
2014,11,17,00,29,-1.60
2014,11,17,00,30,-1.60
2014,11,17,00,31,-1.60
2014,11,17,00,32,-1.60
2014,11,17,00,33,-1.60
2014,11,17,00,34,-1.60
2014,11,17,00,35,-1.60
2014,11,17,00,36,-1.60
2014,11,17,00,37,-1.70
2014,11,17,00,38,-1.70
2014,11,17,00,39,-1.70
2014,11,17,00,40,-1.70
2014,11,17,00,41,-1.70
2014,11,17,00,42,-1.70
2014,11,17,00,43,-1.70
2014,11,17,00,44,-1.70
2014,11,17,00,45,-1.70
2014,11,17,00,46,-1.70
2014,11,17,00,47,-1.70
2014,11,17,00,48,-1.70
2014,11,17,00,49,-1.70
2014,11,17,00,50,-1.70
2014,11,17,00,51,-1.70
2014,11,17,00,52,-1.60
2014,11,17,00,53,-1.60
2014,11,17,00,54,-1.60
2014,11,17,00,55,-1.60
2014,11,17,00,56,-1.60
2014,11,17,00,57,-1.60
2014,11,17,00,58,-1.60
2014,11,17,00,59,-1.60
2014,11,17,01,00,-1.60
2014,11,17,01,01,-1.70
2014,11,17,01,02,-1.70
2014,11,17,01,03,-1.70
2014,11,17,01,04,-1.70
2014,11,17,01,05,-1.70
2014,11,17,01,06,-1.80
2014,11,17,01,07,-1.80
2014,11,17,01,08,-1.80
2014,11,17,01,09,-1.80
2014,11,17,01,10,-1.80
2014,11,17,01,11,-1.80
2014,11,17,01,12,-1.70
2014,11,17,01,13,-1.70
2014,11,17,01,14,-1.70
2014,11,17,01,15,-1.70
2014,11,17,01,16,-1.70
2014,11,17,01,17,-1.70
2014,11,17,01,18,-1.70
2014,11,17,01,19,-1.70
2014,11,17,01,20,-1.70
2014,11,17,01,21,-1.70
2014,11,17,01,22,-1.70
2014,11,17,01,23,-1.80
2014,11,17,01,24,-1.80
2014,11,17,01,25,-1.80
2014,11,17,01,26,-1.80
2014,11,17,01,27,-1.90
2014,11,17,01,28,-1.90
2014,11,17,01,29,-1.90
2014,11,17,01,30,-1.90
2014,11,17,01,31,-1.90
2014,11,17,01,32,-1.90
2014,11,17,01,33,-1.80
2014,11,17,01,34,-1.80
2014,11,17,01,35,-1.80
2014,11,17,01,36,-1.90
2014,11,17,01,37,-1.90
2014,11,17,01,38,-1.90
2014,11,17,01,39,-1.90
2014,11,17,01,40,-1.90
2014,11,17,01,41,-1.90
2014,11,17,01,42,-1.90
2014,11,17,01,43,-1.90
2014,11,17,01,44,-1.90
2014,11,17,01,45,-2.00
2014,11,17,01,46,-2.00
2014,11,17,01,47,-2.10
2014,11,17,01,48,-2.10
2014,11,17,01,49,-2.10
2014,11,17,01,50,-2.10
2014,11,17,01,51,-2.10
2014,11,17,01,52,-2.10
2014,11,17,01,53,-2.10
2014,11,17,01,54,-2.10
2014,11,17,01,55,-2.20
2014,11,17,01,56,-2.20
2014,11,17,01,57,-2.20
2014,11,17,01,58,-2.20
2014,11,17,01,59,-2.20
2014,11,17,02,00,-2.20
2014,11,17,02,01,-2.20
2014,11,17,02,02,-2.30
2014,11,17,02,03,-2.30
2014,11,17,02,04,-2.30
2014,11,17,02,05,-2.30
2014,11,17,02,06,-2.30
2014,11,17,02,07,-2.30
2014,11,17,02,08,-2.30
2014,11,17,02,09,-2.30
2014,11,17,02,10,-2.30
2014,11,17,02,11,-2.30
2014,11,17,02,12,-2.30
2014,11,17,02,13,-2.30
2014,11,17,02,14,-2.30
2014,11,17,02,15,-2.30
2014,11,17,02,16,-2.30
2014,11,17,02,17,-2.30
2014,11,17,02,18,-2.30
2014,11,17,02,19,-2.20
2014,11,17,02,20,-2.20
2014,11,17,02,21,-2.20
2014,11,17,02,22,-2.10
2014,11,17,02,23,-2.10
2014,11,17,02,24,-2.10
2014,11,17,02,25,-2.10
2014,11,17,02,26,-2.00
2014,11,17,02,27,-1.90
2014,11,17,02,28,-1.90
2014,11,17,02,29,-1.90
2014,11,17,02,30,-1.90
2014,11,17,02,31,-1.90
2014,11,17,02,32,-1.90
2014,11,17,02,33,-2.00
2014,11,17,02,34,-2.00
2014,11,17,02,35,-2.10
2014,11,17,02,36,-2.10
2014,11,17,02,37,-2.20
2014,11,17,02,38,-2.20
2014,11,17,02,39,-2.20
2014,11,17,02,40,-2.20
2014,11,17,02,41,-2.20
2014,11,17,02,42,-2.20
2014,11,17,02,43,-2.20
2014,11,17,02,44,-2.20
2014,11,17,02,45,-2.20
2014,11,17,02,46,-2.20
2014,11,17,02,47,-2.20
2014,11,17,02,48,-2.20
2014,11,17,02,49,-2.10
2014,11,17,02,50,-2.10
2014,11,17,02,51,-2.10
2014,11,17,02,52,-2.10
2014,11,17,02,53,-2.20
2014,11,17,02,54,-2.20
2014,11,17,02,55,-2.20
2014,11,17,02,56,-2.20
2014,11,17,02,57,-2.20
2014,11,17,02,58,-2.20
2014,11,17,02,59,-2.20
2014,11,17,03,00,-2.20
2014,11,17,03,01,-2.20
2014,11,17,03,02,-2.10
2014,11,17,03,03,-2.10
2014,11,17,03,04,-2.10
2014,11,17,03,05,-2.10
2014,11,17,03,06,-2.10
2014,11,17,03,07,-2.10
2014,11,17,03,08,-2.10
2014,11,17,03,09,-2.10
2014,11,17,03,10,-2.00
2014,11,17,03,11,-2.00
2014,11,17,03,12,-2.00
2014,11,17,03,13,-1.90
2014,11,17,03,14,-1.90
2014,11,17,03,15,-1.90
2014,11,17,03,16,-1.90
2014,11,17,03,17,-1.80
2014,11,17,03,18,-1.80
2014,11,17,03,19,-1.70
2014,11,17,03,20,-1.70
2014,11,17,03,21,-1.70
2014,11,17,03,22,-1.70
2014,11,17,03,23,-1.70
2014,11,17,03,24,-1.70
2014,11,17,03,25,-1.80
2014,11,17,03,26,-1.80
2014,11,17,03,27,-1.80
2014,11,17,03,28,-1.80
2014,11,17,03,29,-1.90
2014,11,17,03,30,-1.90
2014,11,17,03,31,-1.90
2014,11,17,03,32,-2.00
2014,11,17,03,33,-2.00
2014,11,17,03,34,-2.00
2014,11,17,03,35,-2.00
2014,11,17,03,36,-2.00
2014,11,17,03,37,-2.00
2014,11,17,03,38,-2.00
2014,11,17,03,39,-2.00
2014,11,17,03,40,-2.00
2014,11,17,03,41,-2.00
2014,11,17,03,42,-2.00
2014,11,17,03,43,-2.00
2014,11,17,03,44,-2.00
2014,11,17,03,45,-2.00
2014,11,17,03,46,-2.00
2014,11,17,03,47,-2.00
2014,11,17,03,48,-2.00
2014,11,17,03,49,-2.00
2014,11,17,03,50,-2.00
2014,11,17,03,51,-2.00
2014,11,17,03,52,-2.10
2014,11,17,03,53,-2.10
2014,11,17,03,54,-2.10
2014,11,17,03,55,-2.10
2014,11,17,03,56,-2.00
2014,11,17,03,57,-2.00
2014,11,17,03,58,-2.00
2014,11,17,03,59,-2.00
2014,11,17,04,00,-2.00
2014,11,17,04,01,-2.00
2014,11,17,04,02,-2.00
2014,11,17,04,03,-2.00
2014,11,17,04,04,-2.00
2014,11,17,04,05,-2.00
2014,11,17,04,06,-2.10
2014,11,17,04,07,-2.10
2014,11,17,04,08,-2.10
2014,11,17,04,09,-2.10
2014,11,17,04,10,-2.10
2014,11,17,04,11,-2.10
2014,11,17,04,12,-2.10
2014,11,17,04,13,-2.10
2014,11,17,04,14,-2.00
2014,11,17,04,15,-2.00
2014,11,17,04,16,-2.10
2014,11,17,04,17,-2.10
2014,11,17,04,18,-2.10
2014,11,17,04,19,-2.20
2014,11,17,04,20,-2.20
2014,11,17,04,21,-2.20
2014,11,17,04,22,-2.20
2014,11,17,04,23,-2.20
2014,11,17,04,24,-2.20
2014,11,17,04,25,-2.30
2014,11,17,04,26,-2.30
2014,11,17,04,27,-2.30
2014,11,17,04,28,-2.30
2014,11,17,04,29,-2.30
2014,11,17,04,30,-2.30
2014,11,17,04,31,-2.40
2014,11,17,04,32,-2.40
2014,11,17,04,33,-2.40
2014,11,17,04,34,-2.40
2014,11,17,04,35,-2.40
2014,11,17,04,36,-2.40
2014,11,17,04,37,-2.40
2014,11,17,04,38,-2.50
2014,11,17,04,39,-2.50
2014,11,17,04,40,-2.50
2014,11,17,04,41,-2.50
2014,11,17,04,42,-2.50
2014,11,17,04,43,-2.60
2014,11,17,04,44,-2.60
2014,11,17,04,45,-2.50
2014,11,17,04,46,-2.50
2014,11,17,04,47,-2.50
2014,11,17,04,48,-2.50
2014,11,17,04,49,-2.50
2014,11,17,04,50,-2.50
2014,11,17,04,51,-2.50
2014,11,17,04,52,-2.40
2014,11,17,04,53,-2.40
2014,11,17,04,54,-2.40
2014,11,17,04,55,-2.40
2014,11,17,04,56,-2.40
2014,11,17,04,57,-2.40
2014,11,17,04,58,-2.40
2014,11,17,04,59,-2.40
2014,11,17,05,00,-2.40
2014,11,17,05,01,-2.40
2014,11,17,05,02,-2.30
2014,11,17,05,03,-2.30
2014,11,17,05,04,-2.30
2014,11,17,05,05,-2.30
2014,11,17,05,06,-2.20
2014,11,17,05,07,-2.20
2014,11,17,05,08,-2.10
2014,11,17,05,09,-1.90
2014,11,17,05,10,-1.80
2014,11,17,05,11,-1.80
2014,11,17,05,12,-1.80
2014,11,17,05,13,-1.70
2014,11,17,05,14,-1.70
2014,11,17,05,15,-1.70
2014,11,17,05,16,-1.70
2014,11,17,05,17,-1.70
2014,11,17,05,18,-1.80
2014,11,17,05,19,-1.80
2014,11,17,05,20,-1.80
2014,11,17,05,21,-1.80
2014,11,17,05,22,-1.70
2014,11,17,05,23,-1.70
2014,11,17,05,24,-1.70
2014,11,17,05,25,-1.70
2014,11,17,05,26,-1.70
2014,11,17,05,27,-1.80
2014,11,17,05,28,-1.80
2014,11,17,05,29,-1.80
2014,11,17,05,30,-1.80
2014,11,17,05,31,-1.80
2014,11,17,05,32,-1.80
2014,11,17,05,33,-1.80
2014,11,17,05,34,-1.80
2014,11,17,05,35,-1.80
2014,11,17,05,36,-1.80
2014,11,17,05,37,-1.90
2014,11,17,05,38,-1.90
2014,11,17,05,39,-1.90
2014,11,17,05,40,-1.90
2014,11,17,05,41,-1.90
2014,11,17,05,42,-1.90
2014,11,17,05,43,-1.90
2014,11,17,05,44,-1.90
2014,11,17,05,45,-1.90
2014,11,17,05,46,-1.90
2014,11,17,05,47,-1.90
2014,11,17,05,48,-1.90
2014,11,17,05,49,-1.90
2014,11,17,05,50,-1.90
2014,11,17,05,51,-1.90
2014,11,17,05,52,-1.90
2014,11,17,05,53,-1.90
2014,11,17,05,54,-1.90
2014,11,17,05,55,-1.90
2014,11,17,05,56,-1.90
2014,11,17,05,57,-1.90
2014,11,17,05,58,-1.90
2014,11,17,05,59,-1.90
2014,11,17,06,00,-2.00
2014,11,17,06,01,-2.00
2014,11,17,06,02,-2.00
2014,11,17,06,03,-2.10
2014,11,17,06,04,-2.10
2014,11,17,06,05,-2.10
2014,11,17,06,06,-2.10
2014,11,17,06,07,-2.10
2014,11,17,06,08,-2.10
2014,11,17,06,09,-2.20
2014,11,17,06,10,-2.20
2014,11,17,06,11,-2.20
2014,11,17,06,12,-2.20
2014,11,17,06,13,-2.20
2014,11,17,06,14,-2.20
2014,11,17,06,15,-2.20
2014,11,17,06,16,-2.20
2014,11,17,06,17,-2.20
2014,11,17,06,18,-2.20
2014,11,17,06,19,-2.20
2014,11,17,06,20,-2.20
2014,11,17,06,21,-2.20
2014,11,17,06,22,-2.20
2014,11,17,06,23,-2.20
2014,11,17,06,24,-2.20
2014,11,17,06,25,-2.20
2014,11,17,06,26,-2.20
2014,11,17,06,27,-2.20
2014,11,17,06,28,-2.20
2014,11,17,06,29,-2.20
2014,11,17,06,30,-2.20
2014,11,17,06,31,-2.20
2014,11,17,06,32,-2.30
2014,11,17,06,33,-2.30
2014,11,17,06,34,-2.30
2014,11,17,06,35,-2.30
2014,11,17,06,36,-2.30
2014,11,17,06,37,-2.30
2014,11,17,06,38,-2.40
2014,11,17,06,39,-2.40
2014,11,17,06,40,-2.40
2014,11,17,06,41,-2.40
2014,11,17,06,42,-2.40
2014,11,17,06,43,-2.40
2014,11,17,06,44,-2.40
2014,11,17,06,45,-2.40
2014,11,17,06,46,-2.40
2014,11,17,06,47,-2.40
2014,11,17,06,48,-2.40
2014,11,17,06,49,-2.40
2014,11,17,06,50,-2.40
2014,11,17,06,51,-2.40
2014,11,17,06,52,-2.40
2014,11,17,06,53,-2.40
2014,11,17,06,54,-2.40
2014,11,17,06,55,-2.40
2014,11,17,06,56,-2.40
2014,11,17,06,57,-2.40
2014,11,17,06,58,-2.40
2014,11,17,06,59,-2.40
2014,11,17,07,00,-2.40
2014,11,17,07,01,-2.30
2014,11,17,07,02,-2.30
2014,11,17,07,03,-2.20
2014,11,17,07,04,-2.20
2014,11,17,07,05,-2.10
2014,11,17,07,06,-2.10
2014,11,17,07,07,-2.00
2014,11,17,07,08,-2.00
2014,11,17,07,09,-2.00
2014,11,17,07,10,-2.00
2014,11,17,07,11,-2.00
2014,11,17,07,12,-2.00
2014,11,17,07,13,-2.10
2014,11,17,07,14,-2.10
2014,11,17,07,15,-2.10
2014,11,17,07,16,-2.10
2014,11,17,07,17,-2.10
2014,11,17,07,18,-2.10
2014,11,17,07,19,-2.00
2014,11,17,07,20,-2.00
2014,11,17,07,21,-1.90
2014,11,17,07,22,-1.90
2014,11,17,07,23,-1.80
2014,11,17,07,24,-1.80
2014,11,17,07,25,-1.80
2014,11,17,07,26,-1.80
2014,11,17,07,27,-1.80
2014,11,17,07,28,-1.80
2014,11,17,07,29,-1.70
2014,11,17,07,30,-1.70
2014,11,17,07,31,-1.70
2014,11,17,07,32,-1.60
2014,11,17,07,33,-1.60
2014,11,17,07,34,-1.60
2014,11,17,07,35,-1.70
2014,11,17,07,36,-1.70
2014,11,17,07,37,-1.70
2014,11,17,07,38,-1.80
2014,11,17,07,39,-1.80
2014,11,17,07,40,-1.80
2014,11,17,07,41,-1.80
2014,11,17,07,42,-1.90
2014,11,17,07,43,-1.90
2014,11,17,07,44,-1.90
2014,11,17,07,45,-2.00
2014,11,17,07,46,-2.00
2014,11,17,07,47,-2.00
2014,11,17,07,48,-2.10
2014,11,17,07,49,-2.10
2014,11,17,07,50,-2.10
2014,11,17,07,51,-2.10
2014,11,17,07,52,-2.10
2014,11,17,07,53,-2.10
2014,11,17,07,54,-2.10
2014,11,17,07,55,-2.10
2014,11,17,07,56,-2.10
2014,11,17,07,57,-2.10
2014,11,17,07,58,-2.10
2014,11,17,07,59,-2.00
2014,11,17,08,00,-2.00
2014,11,17,08,01,-2.00
2014,11,17,08,02,-2.00
2014,11,17,08,03,-2.00
2014,11,17,08,04,-2.00
2014,11,17,08,05,-2.00
2014,11,17,08,06,-1.90
2014,11,17,08,07,-1.90
2014,11,17,08,08,-1.90
2014,11,17,08,09,-1.80
2014,11,17,08,10,-1.80
2014,11,17,08,11,-1.80
2014,11,17,08,12,-1.80
2014,11,17,08,13,-1.80
2014,11,17,08,14,-1.70
2014,11,17,08,15,-1.70
2014,11,17,08,16,-1.70
2014,11,17,08,17,-1.70
2014,11,17,08,18,-1.70
2014,11,17,08,19,-1.70
2014,11,17,08,20,-1.70
2014,11,17,08,21,-1.70
2014,11,17,08,22,-1.70
2014,11,17,08,23,-1.70
2014,11,17,08,24,-1.70
2014,11,17,08,25,-1.70
2014,11,17,08,26,-1.70
2014,11,17,08,27,-1.70
2014,11,17,08,28,-1.70
2014,11,17,08,29,-1.70
2014,11,17,08,30,-1.70
2014,11,17,08,31,-1.70
2014,11,17,08,32,-1.70
2014,11,17,08,33,-1.70
2014,11,17,08,34,-1.70
2014,11,17,08,35,-1.70
2014,11,17,08,36,-1.70
2014,11,17,08,37,-1.60
2014,11,17,08,38,-1.60
2014,11,17,08,39,-1.60
2014,11,17,08,40,-1.50
2014,11,17,08,41,-1.40
2014,11,17,08,42,-1.40
2014,11,17,08,43,-1.30
2014,11,17,08,44,-1.20
2014,11,17,08,45,-1.20
2014,11,17,08,46,-1.10
2014,11,17,08,47,-1.10
2014,11,17,08,48,-1.10
2014,11,17,08,49,-1.10
2014,11,17,08,50,-1.10
2014,11,17,08,51,-1.10
2014,11,17,08,52,-1.20
2014,11,17,08,53,-1.20
2014,11,17,08,54,-1.20
2014,11,17,08,55,-1.20
2014,11,17,08,56,-1.20
2014,11,17,08,57,-1.20
2014,11,17,08,58,-1.20
2014,11,17,08,59,-1.20
2014,11,17,09,00,-1.20
2014,11,17,09,01,-1.20
2014,11,17,09,02,-1.20
2014,11,17,09,03,-1.20
2014,11,17,09,04,-1.20
2014,11,17,09,05,-1.10
2014,11,17,09,06,-1.10
2014,11,17,09,07,-1.10
2014,11,17,09,08,-1.10
2014,11,17,09,09,-1.10
2014,11,17,09,10,-1.00
2014,11,17,09,11,-1.00
2014,11,17,09,12,-1.00
2014,11,17,09,13,-1.00
2014,11,17,09,14,-1.00
2014,11,17,09,15,-1.00
2014,11,17,09,16,-1.00
2014,11,17,09,17,-1.00
2014,11,17,09,18,-0.90
2014,11,17,09,19,-0.90
2014,11,17,09,20,-0.90
2014,11,17,09,21,-0.90
2014,11,17,09,22,-0.80
2014,11,17,09,23,-0.80
2014,11,17,09,24,-0.80
2014,11,17,09,25,-0.70
2014,11,17,09,26,-0.70
2014,11,17,09,27,-0.70
2014,11,17,09,28,-0.70
2014,11,17,09,29,-0.70
2014,11,17,09,30,-0.70
2014,11,17,09,31,-0.60
2014,11,17,09,32,-0.60
2014,11,17,09,33,-0.60
2014,11,17,09,34,-0.60
2014,11,17,09,35,-0.60
2014,11,17,09,36,-0.60
2014,11,17,09,37,-0.60
2014,11,17,09,38,-0.60
2014,11,17,09,39,-0.60
2014,11,17,09,40,-0.60
2014,11,17,09,41,-0.50
2014,11,17,09,42,-0.50
2014,11,17,09,43,-0.50
2014,11,17,09,44,-0.40
2014,11,17,09,45,-0.40
2014,11,17,09,46,-0.40
2014,11,17,09,47,-0.40
2014,11,17,09,48,-0.30
2014,11,17,09,49,-0.30
2014,11,17,09,50,-0.30
2014,11,17,09,51,-0.20
2014,11,17,09,52,-0.20
2014,11,17,09,53,-0.20
2014,11,17,09,54,-0.20
2014,11,17,09,55,-0.10
2014,11,17,09,56,-0.10
2014,11,17,09,57,-0.10
2014,11,17,09,58,0.00
2014,11,17,09,59,0.00
2014,11,17,10,00,0.00
2014,11,17,10,01,0.00
2014,11,17,10,02,0.00
2014,11,17,10,03,0.10
2014,11,17,10,04,0.10
2014,11,17,10,05,0.20
2014,11,17,10,06,0.20
2014,11,17,10,07,0.20
2014,11,17,10,08,0.30
2014,11,17,10,09,0.30
2014,11,17,10,10,0.30
2014,11,17,10,11,0.40
2014,11,17,10,12,0.40
2014,11,17,10,13,0.40
2014,11,17,10,14,0.40
2014,11,17,10,15,0.40
2014,11,17,10,16,0.40
2014,11,17,10,17,0.50
2014,11,17,10,18,0.50
2014,11,17,10,19,0.50
2014,11,17,10,20,0.50
2014,11,17,10,21,0.50
2014,11,17,10,22,0.40
2014,11,17,10,23,0.40
2014,11,17,10,24,0.40
2014,11,17,10,25,0.50
2014,11,17,10,26,0.50
2014,11,17,10,27,0.50
2014,11,17,10,28,0.50
2014,11,17,10,29,0.50
2014,11,17,10,30,0.50
2014,11,17,10,31,0.60
2014,11,17,10,32,0.60
2014,11,17,10,33,0.60
2014,11,17,10,34,0.60
2014,11,17,10,35,0.60
2014,11,17,10,36,0.60
2014,11,17,10,37,0.60
2014,11,17,10,38,0.60
2014,11,17,10,39,0.60
2014,11,17,10,40,0.60
2014,11,17,10,41,0.60
2014,11,17,10,42,0.60
2014,11,17,10,43,0.60
2014,11,17,10,44,0.70
2014,11,17,10,45,0.70
2014,11,17,10,46,0.70
2014,11,17,10,47,0.70
2014,11,17,10,48,0.70
2014,11,17,10,49,0.80
2014,11,17,10,50,0.80
2014,11,17,10,51,0.80
2014,11,17,10,52,0.90
2014,11,17,10,53,0.90
2014,11,17,10,54,0.90
2014,11,17,10,55,0.90
2014,11,17,10,56,1.00
2014,11,17,10,57,1.00
2014,11,17,10,58,1.10
2014,11,17,10,59,1.10
2014,11,17,11,00,1.20
2014,11,17,11,01,1.20
2014,11,17,11,02,1.30
2014,11,17,11,03,1.30
2014,11,17,11,04,1.30
2014,11,17,11,05,1.40
2014,11,17,11,06,1.50
2014,11,17,11,07,1.50
2014,11,17,11,08,1.60
2014,11,17,11,09,1.70
2014,11,17,11,10,1.80
2014,11,17,11,11,1.80
2014,11,17,11,12,1.90
2014,11,17,11,13,2.00
2014,11,17,11,14,2.00
2014,11,17,11,15,2.10
2014,11,17,11,16,2.20
2014,11,17,11,17,2.20
2014,11,17,11,18,2.30
2014,11,17,11,19,2.30
2014,11,17,11,20,2.40
2014,11,17,11,21,2.40
2014,11,17,11,22,2.50
2014,11,17,11,23,2.60
2014,11,17,11,24,2.60
2014,11,17,11,25,2.70
2014,11,17,11,26,2.80
2014,11,17,11,27,2.90
2014,11,17,11,28,3.00
2014,11,17,11,29,3.10
2014,11,17,11,30,3.10
2014,11,17,11,31,3.20
2014,11,17,11,32,3.30
2014,11,17,11,33,3.30
2014,11,17,11,34,3.40
2014,11,17,11,35,3.50
2014,11,17,11,36,3.50
2014,11,17,11,37,3.60
2014,11,17,11,38,3.70
2014,11,17,11,39,3.70
2014,11,17,11,40,3.70
2014,11,17,11,41,3.80
2014,11,17,11,42,3.80
2014,11,17,11,43,3.90
2014,11,17,11,44,3.90
2014,11,17,11,45,3.90
2014,11,17,11,46,4.00
2014,11,17,11,47,4.00
2014,11,17,11,48,4.00
2014,11,17,11,49,4.10
2014,11,17,11,50,4.10
2014,11,17,11,51,4.10
2014,11,17,11,52,4.10
2014,11,17,11,53,4.10
2014,11,17,11,54,4.10
2014,11,17,11,55,4.20
2014,11,17,11,56,4.20
2014,11,17,11,57,4.20
2014,11,17,11,58,4.20
2014,11,17,11,59,4.30
2014,11,17,12,00,4.30
2014,11,17,12,01,4.40
2014,11,17,12,02,4.40
2014,11,17,12,03,4.40
2014,11,17,12,04,4.50
2014,11,17,12,05,4.50
2014,11,17,12,06,4.50
2014,11,17,12,07,4.60
2014,11,17,12,08,4.60
2014,11,17,12,09,4.60
2014,11,17,12,10,4.60
2014,11,17,12,11,4.70
2014,11,17,12,12,4.70
2014,11,17,12,13,4.80
2014,11,17,12,14,4.80
2014,11,17,12,15,4.80
2014,11,17,12,16,4.90
2014,11,17,12,17,4.90
2014,11,17,12,18,4.90
2014,11,17,12,19,5.00
2014,11,17,12,20,5.00
2014,11,17,12,21,5.10
2014,11,17,12,22,5.10
2014,11,17,12,23,5.20
2014,11,17,12,24,5.20
2014,11,17,12,25,5.30
2014,11,17,12,26,5.30
2014,11,17,12,27,5.40
2014,11,17,12,28,5.50
2014,11,17,12,29,5.50
2014,11,17,12,30,5.60
2014,11,17,12,31,5.60
2014,11,17,12,32,5.70
2014,11,17,12,33,5.70
2014,11,17,12,34,5.70
2014,11,17,12,35,5.70
2014,11,17,12,36,5.70
2014,11,17,12,37,5.70
2014,11,17,12,38,5.70
2014,11,17,12,39,5.60
2014,11,17,12,40,5.60
2014,11,17,12,41,5.60
2014,11,17,12,42,5.60
2014,11,17,12,43,5.60
2014,11,17,12,44,5.60
2014,11,17,12,45,5.50
2014,11,17,12,46,5.50
2014,11,17,12,47,5.50
2014,11,17,12,48,5.50
2014,11,17,12,49,5.50
2014,11,17,12,50,5.50
2014,11,17,12,51,5.60
2014,11,17,12,52,5.60
2014,11,17,12,53,5.60
2014,11,17,12,54,5.60
2014,11,17,12,55,5.60
2014,11,17,12,56,5.50
2014,11,17,12,57,5.50
2014,11,17,12,58,5.40
2014,11,17,12,59,5.40
2014,11,17,13,00,5.40
2014,11,17,13,01,5.40
2014,11,17,13,02,5.40
2014,11,17,13,03,5.40
2014,11,17,13,04,5.50
2014,11,17,13,05,5.50
2014,11,17,13,06,5.60
2014,11,17,13,07,5.60
2014,11,17,13,08,5.70
2014,11,17,13,09,5.80
2014,11,17,13,10,5.80
2014,11,17,13,11,5.90
2014,11,17,13,12,6.00
2014,11,17,13,13,6.00
2014,11,17,13,14,6.10
2014,11,17,13,15,6.10
2014,11,17,13,16,6.20
2014,11,17,13,17,6.20
2014,11,17,13,18,6.20
2014,11,17,13,19,6.30
2014,11,17,13,20,6.30
2014,11,17,13,21,6.40
2014,11,17,13,22,6.40
2014,11,17,13,23,6.50
2014,11,17,13,24,6.50
2014,11,17,13,25,6.60
2014,11,17,13,26,6.70
2014,11,17,13,27,6.70
2014,11,17,13,28,6.70
2014,11,17,13,29,6.80
2014,11,17,13,30,6.80
2014,11,17,13,31,6.80
2014,11,17,13,32,6.80
2014,11,17,13,33,6.80
2014,11,17,13,34,6.90
2014,11,17,13,35,6.90
2014,11,17,13,36,7.00
2014,11,17,13,37,7.00
2014,11,17,13,38,7.10
2014,11,17,13,39,7.10
2014,11,17,13,40,7.10
2014,11,17,13,41,7.10
2014,11,17,13,42,7.20
2014,11,17,13,43,7.20
2014,11,17,13,44,7.20
2014,11,17,13,45,7.30
2014,11,17,13,46,7.30
2014,11,17,13,47,7.30
2014,11,17,13,48,7.30
2014,11,17,13,49,7.40
2014,11,17,13,50,7.40
2014,11,17,13,51,7.50
2014,11,17,13,52,7.50
2014,11,17,13,53,7.50
2014,11,17,13,54,7.60
2014,11,17,13,55,7.60
2014,11,17,13,56,7.60
2014,11,17,13,57,7.60
2014,11,17,13,58,7.60
2014,11,17,13,59,7.60
2014,11,17,14,00,7.50
2014,11,17,14,01,7.50
2014,11,17,14,02,7.40
2014,11,17,14,03,7.40
2014,11,17,14,04,7.40
2014,11,17,14,05,7.30
2014,11,17,14,06,7.30
2014,11,17,14,07,7.30
2014,11,17,14,08,7.30
2014,11,17,14,09,7.30
2014,11,17,14,10,7.30
2014,11,17,14,11,7.30
2014,11,17,14,12,7.30
2014,11,17,14,13,7.30
2014,11,17,14,14,7.30
2014,11,17,14,15,7.30
2014,11,17,14,16,7.30
2014,11,17,14,17,7.30
2014,11,17,14,18,7.30
2014,11,17,14,19,7.30
2014,11,17,14,20,7.30
2014,11,17,14,21,7.30
2014,11,17,14,22,7.20
2014,11,17,14,23,7.20
2014,11,17,14,24,7.20
2014,11,17,14,25,7.20
2014,11,17,14,26,7.20
2014,11,17,14,27,7.20
2014,11,17,14,28,7.30
2014,11,17,14,29,7.30
2014,11,17,14,30,7.30
2014,11,17,14,31,7.30
2014,11,17,14,32,7.30
2014,11,17,14,33,7.30
2014,11,17,14,34,7.30
2014,11,17,14,35,7.30
2014,11,17,14,36,7.30
2014,11,17,14,37,7.30
2014,11,17,14,38,7.30
2014,11,17,14,39,7.30
2014,11,17,14,40,7.30
2014,11,17,14,41,7.30
2014,11,17,14,42,7.30
2014,11,17,14,43,7.20
2014,11,17,14,44,7.20
2014,11,17,14,45,7.20
2014,11,17,14,46,7.20
2014,11,17,14,47,7.20
2014,11,17,14,48,7.20
2014,11,17,14,49,7.10
2014,11,17,14,50,7.00
2014,11,17,14,51,7.00
2014,11,17,14,52,6.90
2014,11,17,14,53,6.80
2014,11,17,14,54,6.70
2014,11,17,14,55,6.70
2014,11,17,14,56,6.60
2014,11,17,14,57,6.50
2014,11,17,14,58,6.50
2014,11,17,14,59,6.40
2014,11,17,15,00,6.40
2014,11,17,15,01,6.40
2014,11,17,15,02,6.30
2014,11,17,15,03,6.30
2014,11,17,15,04,6.30
2014,11,17,15,05,6.30
2014,11,17,15,06,6.30
2014,11,17,15,07,6.30
2014,11,17,15,08,6.30
2014,11,17,15,09,6.30
2014,11,17,15,10,6.30
2014,11,17,15,11,6.30
2014,11,17,15,12,6.20
2014,11,17,15,13,6.20
2014,11,17,15,14,6.20
2014,11,17,15,15,6.20
2014,11,17,15,16,6.20
2014,11,17,15,17,6.20
2014,11,17,15,18,6.20
2014,11,17,15,19,6.20
2014,11,17,15,20,6.20
2014,11,17,15,21,6.20
2014,11,17,15,22,6.20
2014,11,17,15,23,6.20
2014,11,17,15,24,6.20
2014,11,17,15,25,6.10
2014,11,17,15,26,6.10
2014,11,17,15,27,6.10
2014,11,17,15,28,6.10
2014,11,17,15,29,6.10
2014,11,17,15,30,6.10
2014,11,17,15,31,6.10
2014,11,17,15,32,6.10
2014,11,17,15,33,6.10
2014,11,17,15,34,6.00
2014,11,17,15,35,6.00
2014,11,17,15,36,6.00
2014,11,17,15,37,5.90
2014,11,17,15,38,5.90
2014,11,17,15,39,5.90
2014,11,17,15,40,5.90
2014,11,17,15,41,5.80
2014,11,17,15,42,5.80
2014,11,17,15,43,5.80
2014,11,17,15,44,5.80
2014,11,17,15,45,5.80
2014,11,17,15,46,5.80
2014,11,17,15,47,5.80
2014,11,17,15,48,5.80
2014,11,17,15,49,5.80
2014,11,17,15,50,5.70
2014,11,17,15,51,5.70
2014,11,17,15,52,5.70
2014,11,17,15,53,5.60
2014,11,17,15,54,5.60
2014,11,17,15,55,5.50
2014,11,17,15,56,5.50
2014,11,17,15,57,5.40
2014,11,17,15,58,5.40
2014,11,17,15,59,5.40
2014,11,17,16,00,5.40
2014,11,17,16,01,5.40
2014,11,17,16,02,5.40
2014,11,17,16,03,5.30
2014,11,17,16,04,5.30
2014,11,17,16,05,5.30
2014,11,17,16,06,5.20
2014,11,17,16,07,5.10
2014,11,17,16,08,5.10
2014,11,17,16,09,5.10
2014,11,17,16,10,5.00
2014,11,17,16,11,5.10
2014,11,17,16,12,5.10
2014,11,17,16,13,5.10
2014,11,17,16,14,5.10
2014,11,17,16,15,5.00
2014,11,17,16,16,5.00
2014,11,17,16,17,4.90
2014,11,17,16,18,4.80
2014,11,17,16,19,4.80
2014,11,17,16,20,4.80
2014,11,17,16,21,4.70
2014,11,17,16,22,4.70
2014,11,17,16,23,4.70
2014,11,17,16,24,4.70
2014,11,17,16,25,4.70
2014,11,17,16,26,4.70
2014,11,17,16,27,4.70
2014,11,17,16,28,4.60
2014,11,17,16,29,4.60
2014,11,17,16,30,4.50
2014,11,17,16,31,4.40
2014,11,17,16,32,4.30
2014,11,17,16,33,4.20
2014,11,17,16,34,4.00
2014,11,17,16,35,3.90
2014,11,17,16,36,3.90
2014,11,17,16,37,3.80
2014,11,17,16,38,3.70
2014,11,17,16,39,3.70
2014,11,17,16,40,3.60
2014,11,17,16,41,3.60
2014,11,17,16,42,3.50
2014,11,17,16,43,3.50
2014,11,17,16,44,3.40
2014,11,17,16,45,3.40
2014,11,17,16,46,3.30
2014,11,17,16,47,3.30
2014,11,17,16,48,3.30
2014,11,17,16,49,3.30
2014,11,17,16,50,3.30
2014,11,17,16,51,3.20
2014,11,17,16,52,3.20
2014,11,17,16,53,3.20
2014,11,17,16,54,3.20
2014,11,17,16,55,3.20
2014,11,17,16,56,3.20
2014,11,17,16,57,3.20
2014,11,17,16,58,3.20
2014,11,17,16,59,3.30
2014,11,17,17,00,3.30
2014,11,17,17,01,3.30
2014,11,17,17,02,3.30
2014,11,17,17,03,3.40
2014,11,17,17,04,3.40
2014,11,17,17,05,3.40
2014,11,17,17,06,3.30
2014,11,17,17,07,3.30
2014,11,17,17,08,3.30
2014,11,17,17,09,3.20
2014,11,17,17,10,3.20
2014,11,17,17,11,3.10
2014,11,17,17,12,3.00
2014,11,17,17,13,2.80
2014,11,17,17,14,2.70
2014,11,17,17,15,2.70
2014,11,17,17,16,2.50
2014,11,17,17,17,2.50
2014,11,17,17,18,2.40
2014,11,17,17,19,2.30
2014,11,17,17,20,2.30
2014,11,17,17,21,2.30
2014,11,17,17,22,2.20
2014,11,17,17,23,2.20
2014,11,17,17,24,2.20
2014,11,17,17,25,2.20
2014,11,17,17,26,2.20
2014,11,17,17,27,2.20
2014,11,17,17,28,2.20
2014,11,17,17,29,2.20
2014,11,17,17,30,2.20
2014,11,17,17,31,2.20
2014,11,17,17,32,2.20
2014,11,17,17,33,2.20
2014,11,17,17,34,2.10
2014,11,17,17,35,2.10
2014,11,17,17,36,2.10
2014,11,17,17,37,2.10
2014,11,17,17,38,2.10
2014,11,17,17,39,2.10